Regional Weather Roundup
Issued by NWS

Home | Current Version | Previous Version | Graphics & Text | Print | Product List | Glossary On
Versions: 1 2 3 4 5 6 7 8 9 10 11 12 13 14 15 16 17 18 19 20 21 22 23 24 25 26 27 28 29 30 31 32 33 34 35 36 37 38 39 40 41 42 43 44 45 46 47 48 49 50
000
ASUS43 KLMK 212210
RWRKY
KENTUCKY REGIONAL WEATHER ROUNDUP
NATIONAL WEATHER SERVICE LOUISVILLE KY
600 PM EDT SUN SEP 21 2014

NOTE "FAIR" INDICATES FEW OR NO CLOUDS BELOW 12,000 FEET
WITH NO SIGNIFICANT WEATHER AND/OR OBSTRUCTIONS TO VISIBILITY.

KYZ001>023-026-027-061>063-070>075-212300-
WESTERN AND SOUTH CENTRAL KENTUCKY

CITY           SKY/WX    TMP DP  RH WIND       PRES   REMARKS
PADUCAH        SUNNY     82  50  32 NW9       29.98R
HENDERSON      MOSUNNY   79  48  34 NW16      29.96R
OWENSBORO      MOSUNNY   78  49  36 NW15      29.96R
HOPKINSVILLE   SUNNY     79  46  30 NW14G21   29.95R
BOWLING GREEN  SUNNY     79  44  28 NW14G20   29.94R
GLASGOW        SUNNY     80  44  28 NW9       29.93R
$$

KYZ024-025-028>034-038-045-046-053-212300-
NORTH CENTRAL KENTUCKY

CITY           SKY/WX    TMP DP  RH WIND       PRES   REMARKS
LOUISVILLE/SDF MOSUNNY   78  47  33 NW18G29   29.91S
LOUISVILLE/LOU SUNNY     77  46  33 NW14G28   29.92R
FORT KNOX      SUNNY     75  51  43 W15       29.92R
$$

KYZ035>037-039>044-047>052-055>060-089>105-212300-
NORTHEAST KENTUCKY

CITY           SKY/WX    TMP DP  RH WIND       PRES   REMARKS
LEXINGTON      SUNNY     77  46  33 NW16G23   29.90R
COVINGTON      MOSUNNY   73  47  39 NW18G26   29.89R
FRANKFORT      SUNNY     75  46  35 NW15G24   29.90R
$$

KYZ054-064>069-076>088-106>120-212300-
SOUTHEAST KENTUCKY

CITY           SKY/WX    TMP DP  RH WIND       PRES   REMARKS
JACKSON        MOSUNNY   76  66  71 VRB5      29.86R
LONDON         LGT RAIN  78  64  61 W15G21    29.89S
SOMERSET       MOSUNNY   79  61  53 W9G17     29.90R
MIDDLESBORO    SUNNY     79  65  63 W3        29.88F
MONTICELLO     MOCLDY    82  62  50 W12       29.92R
$$




USA.gov is the U.S. government's official web portal to all federal, state and local government web resources and services.